DW6561 Weather Reports


time (UTC)temp
F
wind
direction
speed
knots
gust
knots
rain 1hr
in
rain 24hr
in
rain mn
in
humidity
%
barometer
mb
20260901190003 71 175 2.6 10.4 0.00 0.00 0.00 52 1007.7
20260901184504 70 177 2.6 12.2 0.00 0.00 0.00 52 1007.5
20260901183003 70 174 3.5 8.7 0.00 0.00 0.00 52 1007.5
20260901181503 70 182 3.5 7.8 0.00 0.00 0.00 53 1007.7
20260901180003 70 192 2.6 7.8 0.00 0.00 0.00 52 1007.6
20260901174508 69 182 3.5 9.6 0.00 0.00 0.00 52 1007.7
20260901173005 70 177 4.3 9.6 0.00 0.00 0.00 50 1007.8
20260901171502 70 210 3.5 7.8 0.00 0.00 0.00 45 1008.0
20260901170007 71 177 0.9 5.2 0.00 0.00 0.00 43 1007.4
20260901164504 71 150 1.7 5.2 0.00 0.00 0.00 41 1007.5
20260901163005 72 173 1.7 5.2 0.00 0.00 0.00 40 1007.6
20260901161521 71 170 0.0 6.1 0.00 0.00 0.00 41 1007.6
20260901160015 70 203 0.0 3.5 0.00 0.00 0.00 43 1007.7
20260901154507 68 174 0.0 5.2 0.00 0.00 0.00 43 1007.4
20260901153007 67 147 0.0 4.3 0.00 0.00 0.00 45 1007.4
20260901151508 64 163 0.0 2.6 0.00 0.00 0.00 49 1007.4
20260901150011 62 143 0.0 0.0 0.00 0.00 0.00 57 1007.3
20260901144513 61 143 0.0 0.0 0.00 0.00 0.00 56 1007.3
20260901143011 61 143 0.0 0.0 0.00 0.00 0.00 57 1007.2
20260901141511 61 61 0.0 0.0 0.00 0.00 0.00 56 1007.2
20260901140004 61 61 0.0 0.0 0.00 0.00 0.00 57 1007.0
20260901134511 61 61 0.0 0.0 0.00 0.00 0.00 56 1006.9
20260901133009 62 61 0.0 0.0 0.00 0.00 0.00 54 1006.8
20260901131508 62 320 0.0 0.0 0.00 0.00 0.00 56 1007.1
20260901130006 62 180 1.7 8.7 0.00 0.00 0.00 55 1007.2
20260901124504 62 169 0.0 0.0 0.00 0.00 0.00 58 1006.7
20260901123003 62 169 0.0 0.0 0.00 0.00 0.00 57 1006.6
20260901121513 63 169 0.0 0.0 0.00 0.00 0.00 55 1006.6
20260901120013 64 169 0.0 0.0 0.00 0.00 0.00 60 1006.8
20260901114504 64 170 0.0 0.0 0.00 0.00 0.00 48 1006.7
20260901113016 63 170 0.0 0.0 0.00 0.00 0.00 46 1006.8
20260901111505 63 173 0.0 0.0 0.00 0.00 0.00 47 1006.5
20260901110003 63 173 0.0 0.0 0.00 0.00 0.00 46 1006.6
20260901104516 64 173 0.0 0.0 0.00 0.00 0.00 46 1006.7
20260901103008 64 173 0.0 0.0 0.00 0.00 0.00 47 1006.7
20260901101511 64 173 0.0 0.0 0.00 0.00 0.00 46 1006.8
20260901100014 64 173 0.0 0.0 0.00 0.00 0.00 46 1006.8
20260901094511 64 173 0.0 0.0 0.00 0.00 0.00 45 1006.8
20260901093023 64 173 0.0 0.0 0.00 0.00 0.00 45 1006.7
20260901091508 65 173 0.0 0.0 0.00 0.00 0.00 45 1006.8
20260901090019 65 173 0.0 0.0 0.00 0.00 0.00 47 1006.7
20260901084531 65 173 0.0 0.0 0.00 0.00 0.00 46 1006.9
20260901083018 65 173 0.0 0.0 0.00 0.00 0.00 45 1007.0
20260901081515 66 173 0.0 0.0 0.00 0.00 0.00 44 1007.0
20260901080014 66 173 0.0 0.0 0.00 0.00 0.00 44 1007.0
20260901074504 66 173 0.0 1.7 0.00 0.00 0.00 43 1007.0
20260901073002 67 308 0.0 0.0 0.00 0.00 0.00 42 1007.1
20260901071504 67 308 0.0 0.0 0.00 0.00 0.00 42 1007.0
20260901070002 68 308 0.0 0.0 0.00 0.00 0.00 41 1007.2
20260901064504 68 308 0.0 0.0 0.00 0.00 0.00 41 1007.1
20260901063009 69 308 0.0 0.0 0.00 0.00 0.00 41 1007.2
20260901061505 69 308 0.0 0.0 0.00 0.00 0.00 40 1007.2
20260901060009 69 308 0.0 0.0 0.00 0.00 0.00 40 1007.3
20260901054504 70 308 0.0 0.0 0.00 0.00 0.00 40 1007.4
20260901053005 70 308 0.0 0.9 0.00 0.00 0.00 39 1007.6
20260901051503 71 308 0.0 0.0 0.00 0.00 0.00 39 1007.6
20260901050003 71 308 0.0 0.0 0.00 0.00 0.00 38 1007.7
20260901044515 72 308 0.0 0.9 0.00 0.00 0.00 37 1007.8
20260901043003 72 308 0.0 0.0 0.00 0.00 0.00 37 1007.7
20260901041503 73 308 0.0 0.9 0.00 0.00 0.00 36 1007.7
20260901040007 73 308 0.0 0.9 0.00 0.00 0.00 37 1007.7
20260901034504 74 293 0.0 0.9 0.00 0.00 0.00 36 1007.6
20260901033004 74 293 0.0 0.9 0.00 0.00 0.00 36 1007.5
20260901031504 75 293 0.0 0.9 0.00 0.00 0.00 36 1007.6
20260901030004 76 291 0.0 0.0 0.00 0.00 0.00 35 1007.5
20260901024508 77 290 0.0 0.0 0.00 0.00 0.00 34 1007.5
20260901023008 78 290 0.0 0.0 0.00 0.00 0.00 34 1007.5
20260901021509 80 290 0.0 0.9 0.00 0.00 0.00 33 1007.5
20260901020003 80 290 0.0 0.9 0.00 0.00 0.00 32 1007.6
20260901014508 81 290 0.0 0.9 0.00 0.00 0.00 31 1007.7
20260901013009 82 290 0.0 0.9 0.00 0.00 0.00 30 1007.9
20260901011522 82 315 0.0 0.9 0.00 0.00 0.00 28 1008.0
20260901010014 83 325 0.0 1.7 0.00 0.00 0.00 29 1008.1
20260901004512 83 309 0.0 0.9 0.00 0.00 0.00 29 1008.3
20260901003006 84 312 0.0 2.6 0.00 0.00 0.00 29 1008.3
20260901001520 84 309 0.0 1.7 0.00 0.00 0.00 29 1008.6
20260901000019 84 313 0.0 0.9 0.00 0.00 0.00 29 1008.8
20260831234525 84 333 0.0 1.7 0.00 0.00 0.00 30 1009.1
20260831233034 84 297 0.0 1.7 0.00 0.00 0.00 29 1009.5
20260831231514 84 298 0.0 1.7 0.00 0.00 0.00 29 1009.6
20260831230011 84 286 0.0 1.7 0.00 0.00 0.00 30 1009.9
20260831224527 84 312 0.0 2.6 0.00 0.00 0.00 30 1010.1
20260831223033 84 314 0.0 2.6 0.00 0.00 0.00 30 1010.4
20260831221528 84 103 0.0 2.6 0.00 0.00 0.00 30 1010.6
20260831220022 83 35 0.0 1.7 0.00 0.00 0.00 31 1010.9
20260831214506 83 322 0.0 1.7 0.00 0.00 0.00 32 1011.2
20260831213003 83 305 0.0 1.7 0.00 0.00 0.00 32 1011.5
20260831211502 82 318 0.0 1.7 0.00 0.00 0.00 33 1011.7
20260831210002 81 292 0.9 2.6 0.00 0.00 0.00 31 1012.0
20260831204509 81 34 0.0 1.7 0.00 0.00 0.00 32 1012.2
20260831203004 80 292 0.0 1.7 0.00 0.00 0.00 33 1012.4
20260831201504 80 321 0.0 1.7 0.00 0.00 0.00 34 1012.8
20260831200010 79 102 0.0 2.6 0.00 0.00 0.00 35 1013.1
20260831194502 79 350 0.0 1.7 0.00 0.00 0.00 36 1013.2
20260831193004 78 101 0.0 0.9 0.00 0.00 0.00 37 1013.5
20260831191505 77 318 0.0 1.7 0.00 0.00 0.00 40 1013.7